Regional Weather Roundup
Issued by NWS Charleston, SC

Current Version | Previous Version | Graphics & Text | Print | Product List | Glossary On
Versions: 1 2 3 4 5 6 7 8 9 10 11 12 13 14 15 16 17 18 19 20 21 22 23 24 25 26 27 28 29 30 31 32 33 34 35 36 37 38 39 40 41 42 43 44 45 46 47 48 49 50
000 ASUS42 KCHS 110711 RWRCHS REGIONAL WEATHER ROUNDUP NATIONAL WEATHER SERVICE CHARLESTON SC 200 AM EST MON DEC 11 2017 NOTE: "FAIR" INDICATES FEW OR NO CLOUDS BELOW 12,000 FEET WITH NO SIGNIFICANT WEATHER AND/OR OBSTRUCTIONS TO VISIBILITY. NOT ALL STATIONS ARE QUALITY CONTROLLED. USE DATA WITH CAUTION... ESPECIALLY DEWPOINT OBSERVATIONS. SCZ027-030-031-034>040-042>050-110800- ...SOUTHEAST SOUTH CAROLINA... CITY SKY/WX TMP DP RH WIND PRES REMARKS N CHARLESTON CLEAR 36 29 75 W7 30.23F WCI 30 WATERFRONT PRK N/A 41 34 76 VRB3 30.08F JOHNS ISLAND FAIR 36 32 87 CALM 30.24S PINOPOLIS N/A 39 34 81 SW7G14 30.15F WCI 34 MONCKS CORNER FAIR 32 28 86 SW3 30.23R SUMMERVILLE FAIR 32 30 93 CALM 30.24S BEAUFORT MCAS CLEAR 36 30 79 W8 30.26R WCI 30 BEAUFORT ARPT FAIR 39 30 70 W8 30.25S WCI 34 HILTON HEAD IS CLEAR 41 28 60 W6G12 30.26F WALTERBORO SUNNY 30 28 93 CALM 30.23F ALLENDALE FAIR 34 28 80 CALM 30.22F ...SOUTHERN MIDLANDS AND PEE DEE... CITY SKY/WX TMP DP RH WIND PRES REMARKS GEORGETOWN FAIR 32 30 93 SW3 30.22F KINGSTREE FAIR 32 28 86 CALM 30.20F ORANGEBURG CLEAR 35 26 69 W7 30.20F WCI 29 BARNWELL N/A 37 27 65 SW9 30.21F WCI 31 AIKEN FAIR 34 27 75 SW8 30.23S WCI 27 MANNING FAIR 32 30 93 MISG 30.20F COLUMBIA CLEAR 33 27 78 CALM 30.18F SUMTER CLEAR 34 25 68 W6 30.17F WCI 29 FLORENCE CLEAR 32 27 81 SW5 30.19F WCI 27 MYRTLE BEACH CLEAR 36 30 79 W6 30.21F WCI 31 N MYRTLE BEACH CLEAR 40 29 64 W8 30.19F WCI 34 $$ GAZ063-065-086>088-099>101-113>116-118-119-134>141-150-110800- ...SOUTHEAST GEORGIA... CITY SKY/WX TMP DP RH WIND PRES REMARKS SAVANNAH ARPT CLEAR 33 29 85 SW3 30.28R HUNTER AAF CLEAR 33 29 84 SW3 30.25R FORT STEWART CLEAR 30 28 92 CALM 30.26S STATESBORO CLEAR 36 26 67 W3 30.25S SYLVANIA SUNNY 32 31 97 W3 30.25F CLAXTON FAIR 31 31 98 CALM 30.27S ...CSRA...CENTRAL AND FAR SOUTHEAST GEORGIA... CITY SKY/WX TMP DP RH WIND PRES REMARKS THOMSON CLEAR 36 25 65 NW6 30.27F WCI 31 AUGUSTA-BUSH CLEAR 30 25 81 SW3 30.22F AUGUSTA-DANIEL CLEAR 39 25 57 VRB3 30.21F SWAINSBORO FAIR 36 30 80 W7 30.26F WCI 30 VIDALIA CLEAR 36 30 80 CALM 30.27S EASTMAN FAIR 31 24 77 CALM 30.31R HAZLEHURST FAIR 35 29 79 CALM 30.28R ALMA CLEAR 31 28 89 CALM 30.29R WAYCROSS CLEAR 32 28 86 CALM 30.29F JESUP NOT AVBL BAXLEY FAIR 30 30 100 CALM 30.28S BRUNSWICK CLEAR 36 30 80 W3 30.30S SAINT SIMONS CLEAR 40 32 73 W3 30.29S $$ SCZ027-028-034-036>038-045-046-048>050-GAZ119-141-110800- ...LAKE AND SUPPLEMENTAL COASTAL OBSERVATIONS... STATION/POSITION TIME TEMP WIND PRES WAVE SWELL AIR SEA DIR/SP/G HT/PER HT/PER/DIR (UTC) (F) (DEG/KT/KT) (MB) (FT/S) (FT/S/D) WINYAH BAY 0545 39 250/ 4 1024.0 LAKE MURRAY 0620 42 260/ 12/ 20 1020.7 ACE BASIN NERRS 0545 38 CALM 1024.0 FORT PULASKI 0642 270/ 6/ 8 1025.1F SAPELO ISLAND NOT AVBL $$ ANZ835-935-AMZ111-154-330-350-352-354-370-450-454-472-110800- ...C-MAN AND BUOY OBSERVATIONS... STATION/POSITION TIME TEMP WIND PRES WAVE SWELL AIR SEA DIR/SP/G HT/PER HT/PER/DIR (UTC) (F) (DEG/KT/KT) (MB) (FT/S) (FT/S/D) BUOY 41004 0650 74 280/ 17/ 23 1023.1F 3/ 4 2/100/ 8 BUOY 41008 0650 50 61 280/ 17/ 19 1024.7S 2/ 4 FOLLY BEACH CMAN 0600 42 260/ 6/ 9 1024.4F CAPERS NEARSHORE 0608 45 270/ 16/ 21 1023.3F FRIPP NEARSHORE 0608 45 57 260/ 17/ 21 1024.3R STATION/POSITION TIME TEMP WIND PRES WAVE SWELL AIR SEA DIR/SP/G HT/PER HT/PER/DIR (UTC) (F) (DEG/KT/KT) (MB) (FT/S) (FT/S/D) 5E ST. MARYS GA 0630 61 N/A 2/ 3 FRYING PAN BUOY 0650 52 63 270/ 16/ 21 1022.0F 3/ 4 2/120/ 8 BUOY 41025 0650 50 73 260/ 16/ 21 1021.2F 4/ 9 3/ 70/ 9 CAPE LOOKOUT NC 0600 260/ 12/ 14 1021.9F BUOY 41002 0550 59 75 270/ 8/ 12 1022.0 6/ 7 5/300/ 7 BUOY 41010 NOT AVBL ST AUGUSTINE FL 0700 42 62 300/ 7/ 9 1026.0F $$

USA.gov is the U.S. government's official web portal to all federal, state and local government web resources and services.